Back to catalog

STARLINK-5672

AliveCommunicationsVLEO
NORAD 55468·PAYLOAD·🇺🇸 United States

Launched Feb 2, 2023 from Cape Canaveral Space Force Station

Loading…

Next Passes (next 24 hours)

TLE

FreshSource: CelesTrak SupGP

Epoch: Sep 14, 2026, 21:50 UTC

1 55468C 23015V   26257.91020833 -.00040874  00000+0 -14804-2 0  2577
2 55468  43.0024 340.1267 0001542 269.8944 339.6090 15.27599548    16

Track STARLINK-5672 in real time with AllMySat

Download on the App Store